North Clarendon, VT

5:48 AM EST on February 25, 2017 (GMT -0500)
Rutland State

Weather History for KRUT - March, 2013

Change the Weather History Date:

Sunday, March 17, 2013

  Actual Average Record
Temperature  
Mean Temperature 20 °F -  
Max Temperature 28 °F - 77 °F (1990)
Min Temperature 12 °F - -3 °F (1967)
Degree Days  
Heating Degree Days 45    
Month to date heating degree days 589  
Since 1 July heating degree days 5465  
Cooling Degree Days 0    
Month to date cooling degree days 0  
Year to date cooling degree days 0  
Moisture  
Dew Point 8 °F    
Average Humidity 67    
Maximum Humidity 96    
Minimum Humidity 37    
Precipitation  
Precipitation 0.00 in - 1.04 in (1968)
Month to date precipitation 0.78  
Year to date precipitation 2.53  
Sea Level Pressure  
Sea Level Pressure 30.06 in    
Wind  
Wind Speed 6 mph (NNW)    
Max Wind Speed 14 mph    
Max Gust Speed 22 mph    
Visibility 10 miles    
Events      
T = Trace of Precipitation, MM = Missing Value Source: NWS Daily Summary

Daily Weather History Graph

Daily Weather History Graph

Search for Another Location

Airport or City:

Trip Planner

Search our weather history database for the weather conditions in past years. The results will help you decide how hot, cold, wet, or windy it might be!

Date:

Astronomy

Mar. 17, 2013 Rise Set
Actual Time 6:59 AM EDT 7:00 PM EDT
Civil Twilight 6:31 AM EDT 7:29 PM EDT
Nautical Twilight 5:58 AM EDT 8:02 PM EDT
Astronomical Twilight 5:24 AM EDT 8:36 PM EDT
Moon 10:00 AM EDT (3/17) 12:15 AM EDT (3/17)
Length of Visible Light 12h 57m
Length of Day
12h 00m
Waxing Crescent, 31% of the Moon is Illuminated
Mar 17
Waxing Crescent
Mar 19
First Quarter
Mar 27
Full
Apr 3
Last Quarter
Apr 10
New

Hourly Weather History & Observations

Time (EDT) Temp. Windchill Dew Point Humidity Pressure Visibility Wind Dir Wind Speed Gust Speed Precip Events Conditions
12:15 AM 21.2 °F 13.6 °F 14.0 °F 74% 29.88 in 10.0 mi North 5.8 mph - N/A   Overcast
12:55 AM 21.2 °F 14.9 °F 12.2 °F 68% 29.87 in 10.0 mi NNW 4.6 mph - N/A   Overcast
1:15 AM 19.4 °F 14.3 °F 12.2 °F 74% 29.88 in 10.0 mi NNW 3.5 mph - N/A   Scattered Clouds
1:35 AM 19.4 °F 14.3 °F 12.2 °F 74% 29.88 in 10.0 mi North 3.5 mph - N/A   Clear
1:55 AM 19.4 °F - 10.4 °F 68% 29.88 in 10.0 mi Calm Calm - N/A   Clear
2:15 AM 17.6 °F 12.3 °F 10.4 °F 73% 29.89 in 10.0 mi North 3.5 mph - N/A   Clear
2:35 AM 17.6 °F 12.3 °F 12.2 °F 79% 29.89 in 10.0 mi NNW 3.5 mph - N/A   Clear
3:15 AM 15.8 °F 10.2 °F 12.2 °F 86% 29.92 in 10.0 mi North 3.5 mph - N/A   Clear
3:35 AM 15.8 °F 8.6 °F 12.2 °F 86% 29.93 in 10.0 mi North 4.6 mph - N/A   Clear
3:55 AM 15.8 °F 10.2 °F 12.2 °F 86% 29.92 in 10.0 mi North 3.5 mph - N/A   Clear
4:15 AM 15.8 °F 10.2 °F 12.2 °F 86% 29.93 in 10.0 mi NNW 3.5 mph - N/A   Clear
4:35 AM 15.8 °F 8.6 °F 12.2 °F 86% 29.93 in 10.0 mi NNW 4.6 mph - N/A   Clear
4:55 AM 15.8 °F - 12.2 °F 86% 29.93 in 10.0 mi Calm Calm - N/A   Clear
5:15 AM 15.8 °F - 12.2 °F 86% 29.93 in 10.0 mi Calm Calm - N/A   Clear
5:35 AM 15.8 °F - 12.2 °F 86% 29.94 in 10.0 mi Calm Calm - N/A   Clear
5:55 AM 14.0 °F - 10.4 °F 86% 29.94 in 10.0 mi Calm Calm - N/A   Clear
6:15 AM 15.8 °F - 12.2 °F 86% 29.95 in 10.0 mi Calm Calm - N/A   Clear
6:35 AM 12.2 °F 6.1 °F 10.4 °F 92% 29.94 in 10.0 mi SSE 3.5 mph - N/A   Clear
6:55 AM 14.0 °F - 12.2 °F 93% 29.95 in 10.0 mi Calm Calm - N/A   Clear
7:15 AM 12.2 °F - 10.4 °F 92% 29.96 in 10.0 mi Calm Calm - N/A   Clear
7:35 AM 14.0 °F - 12.2 °F 93% 29.97 in 10.0 mi Calm Calm - N/A   Partly Cloudy
7:55 AM 15.8 °F - 12.2 °F 86% 29.98 in 10.0 mi Calm Calm - N/A   Mostly Cloudy
8:15 AM 17.6 °F - 12.2 °F 79% 29.98 in 10.0 mi Calm Calm - N/A   Mostly Cloudy
8:35 AM 19.4 °F 12.8 °F 8.6 °F 63% 29.98 in 10.0 mi SW 4.6 mph - N/A   Mostly Cloudy
8:55 AM 19.4 °F - 8.6 °F 63% 29.99 in 10.0 mi Calm Calm - N/A   Scattered Clouds
9:15 AM 21.2 °F 10.9 °F 8.6 °F 58% 30.01 in 10.0 mi WNW 9.2 mph 18.4 mph N/A   Mostly Cloudy
9:35 AM 21.2 °F 11.7 °F 8.6 °F 58% 30.01 in 10.0 mi WNW 8.1 mph - N/A   Overcast
9:55 AM 21.2 °F 8.9 °F 10.4 °F 63% 30.02 in 10.0 mi West 12.7 mph 18.4 mph N/A   Mostly Cloudy
10:15 AM 21.2 °F 10.1 °F 10.4 °F 63% 30.03 in 10.0 mi NW 10.4 mph - N/A   Partly Cloudy
10:36 AM 21.2 °F 8.3 °F 8.6 °F 58% 30.04 in 10.0 mi North 13.8 mph - N/A   Mostly Cloudy
11:15 AM 24.8 °F 15.3 °F 6.8 °F 46% 30.05 in 10.0 mi NW 9.2 mph - N/A   Overcast
11:35 AM 23.0 °F 13.9 °F 6.8 °F 50% 30.06 in 10.0 mi NNW 8.1 mph 19.6 mph N/A   Overcast
11:55 AM 24.8 °F 15.3 °F 8.6 °F 50% 30.06 in 10.0 mi NW 9.2 mph - N/A   Overcast
12:15 PM 23.0 °F 11.7 °F 8.6 °F 54% 30.07 in 10.0 mi NW 11.5 mph 16.1 mph N/A   Overcast
12:35 PM 24.8 °F 12.9 °F 8.6 °F 50% 30.07 in 10.0 mi NNW 13.8 mph 18.4 mph N/A   Overcast
12:55 PM 24.8 °F 12.9 °F 10.4 °F 54% 30.08 in 10.0 mi North 13.8 mph 19.6 mph N/A   Mostly Cloudy
1:15 PM 24.8 °F 12.9 °F 8.6 °F 50% 30.09 in 10.0 mi NNW 13.8 mph 19.6 mph N/A   Scattered Clouds
1:35 PM 24.8 °F 14.0 °F 8.6 °F 50% 30.09 in 10.0 mi North 11.5 mph 18.4 mph N/A   Mostly Cloudy
2:15 PM 24.8 °F 14.0 °F 6.8 °F 46% 30.09 in 10.0 mi NW 11.5 mph - N/A   Overcast
2:35 PM 26.6 °F 17.5 °F 6.8 °F 43% 30.08 in 10.0 mi NNW 9.2 mph - N/A   Mostly Cloudy
2:55 PM 26.6 °F 16.2 °F 3.2 °F 37% 30.08 in 10.0 mi North 11.5 mph 20.7 mph N/A   Overcast
3:15 PM 26.6 °F 14.3 °F 6.8 °F 43% 30.08 in 10.0 mi North 16.1 mph 23.0 mph N/A   Overcast
3:35 PM 26.6 °F 14.7 °F 6.8 °F 43% 30.09 in 10.0 mi North 15.0 mph 20.7 mph N/A   Mostly Cloudy
3:55 PM 26.6 °F 15.2 °F 6.8 °F 43% 30.09 in 10.0 mi North 13.8 mph 21.9 mph N/A   Partly Cloudy
4:15 PM 24.8 °F 12.9 °F 6.8 °F 46% 30.10 in 10.0 mi North 13.8 mph 21.9 mph N/A   Partly Cloudy
4:35 PM 26.6 °F 15.7 °F 5.0 °F 40% 30.10 in 10.0 mi North 12.7 mph 18.4 mph N/A   Clear
4:55 PM 26.6 °F 15.7 °F 5.0 °F 40% 30.11 in 10.0 mi North 12.7 mph 19.6 mph N/A   Clear
5:15 PM 24.8 °F 14.0 °F 3.2 °F 40% 30.12 in 10.0 mi North 11.5 mph 18.4 mph N/A   Clear
5:35 PM 26.6 °F 18.2 °F 3.2 °F 37% 30.13 in 10.0 mi NNW 8.1 mph 21.9 mph N/A   Clear
5:55 PM 24.8 °F 13.4 °F 3.2 °F 40% 30.14 in 10.0 mi North 12.7 mph 16.1 mph N/A   Clear
6:15 PM 24.8 °F 14.0 °F 3.2 °F 40% 30.15 in 10.0 mi North 11.5 mph 18.4 mph N/A   Clear
6:35 PM 24.8 °F 14.6 °F 3.2 °F 40% 30.16 in 10.0 mi NNW 10.4 mph - N/A   Clear
6:55 PM 23.0 °F 13.9 °F 1.4 °F 39% 30.17 in 10.0 mi NNW 8.1 mph - N/A   Clear
7:15 PM 21.2 °F 11.7 °F 1.4 °F 42% 30.19 in 10.0 mi NNW 8.1 mph - N/A   Clear
7:55 PM 21.2 °F 11.7 °F 1.4 °F 42% 30.22 in 10.0 mi NW 8.1 mph - N/A   Clear
8:15 PM 21.2 °F 12.6 °F 1.4 °F 42% 30.22 in 10.0 mi NW 6.9 mph - N/A   Clear
8:35 PM 21.2 °F 12.6 °F 1.4 °F 42% 30.23 in 10.0 mi NW 6.9 mph - N/A   Clear
8:55 PM 19.4 °F 11.5 °F 1.4 °F 46% 30.24 in 10.0 mi NW 5.8 mph - N/A   Clear
9:15 PM 19.4 °F 9.5 °F -0.4 °F 42% 30.25 in 10.0 mi NW 8.1 mph - N/A   Clear
9:35 PM 19.4 °F 11.5 °F 1.4 °F 46% 30.26 in 10.0 mi NW 5.8 mph - N/A   Clear
10:15 PM 19.4 °F 10.4 °F -0.4 °F 42% 30.28 in 10.0 mi NW 6.9 mph - N/A   Clear
10:55 PM 17.6 °F - 1.4 °F 49% 30.29 in 10.0 mi Calm Calm - N/A   Clear
11:15 PM 17.6 °F - 1.4 °F 49% 30.30 in 10.0 mi Calm Calm - N/A   Clear
11:35 PM 17.6 °F 12.3 °F 1.4 °F 49% 30.29 in 10.0 mi NW 3.5 mph - N/A   Clear
11:55 PM 17.6 °F 12.3 °F 1.4 °F 49% 30.30 in 10.0 mi NW 3.5 mph - N/A   Clear